This is the latest recevied weather packets stored in our database for station/object W8MRL. If no packets are shown the sender has not sent any weather packets the latest 10 day(s).
| Time | Temp. | Humidity | Pressure | Rain* | Wind** | Luminosity | Snow |
|---|---|---|---|---|---|---|---|
| 1777588224 | 16.11° C | 49% | 1019.4 hPa | 0 mm | - | - | - |
| 1777587324 | 16.11° C | 49% | 1019.3 hPa | 0 mm | - | - | - |
| 1777586423 | 15° C | 49% | 1019.3 hPa | 0 mm | - | - | - |
| 1777585522 | 15.56° C | 49% | 1019.5 hPa | 0 mm | - | - | - |
| 1777584620 | 15° C | 52% | 1019.5 hPa | 0 mm | - | - | - |
| 1777583721 | 15° C | 51% | 1019.5 hPa | 0 mm | - | - | - |
| 1777582833 | 13.89° C | 52% | 1019.7 hPa | 0 mm | - | - | - |
| 1777581919 | 15° C | 55% | 1019.6 hPa | 0 mm | - | - | - |
| 1777581018 | 14.44° C | 54% | 1019.8 hPa | 0 mm | - | - | - |
| 1777580118 | 15° C | 55% | 1019.8 hPa | 0 mm | - | - | - |
| 1777579217 | 15.56° C | 51% | 1019.6 hPa | 0 mm | - | - | - |
| 1777578316 | 15° C | 53% | 1020 hPa | 0 mm | - | - | - |
| 1777577416 | 15° C | 52% | 1020 hPa | 0 mm | - | - | - |
| 1777576517 | 15° C | 53% | 1020.2 hPa | 0 mm | - | - | - |
| 1777575622 | 15° C | 50% | 1020.3 hPa | 0 mm | - | - | - |
| 1777574712 | 14.44° C | 55% | 1020.3 hPa | 0 mm | - | - | - |
| 1777573811 | 14.44° C | 54% | 1020.4 hPa | 0 mm | - | - | - |
| 1777572909 | 14.44° C | 57% | 1020.2 hPa | 0 mm | - | - | - |
| 1777572010 | 13.33° C | 55% | 1020.3 hPa | 0 mm | - | - | - |
| 1777571108 | 13.89° C | 58% | 1020.3 hPa | 0 mm | - | - | - |
| 1777570207 | 13.89° C | 59% | 1020.5 hPa | 0 mm | - | - | - |
| 1777569305 | 13.33° C | 61% | 1020.6 hPa | 0 mm | - | - | - |
| 1777568405 | 13.33° C | 60% | 1020.9 hPa | 0 mm | - | - | - |
| 1777567502 | 12.78° C | 63% | 1020.7 hPa | 0 mm | - | - | - |
| 1777566603 | 12.22° C | 64% | 1020.9 hPa | 0 mm | - | - | - |
* Rain latest hour (hover to see other rain measurements)
** Current wind speed in m/s (hover to see current wind gust speed)